Time,TemperatureF,DewpointF,PressureIn,WindDirection,WindDirectionDegrees,WindSpeedMPH,WindSpeedGustMPH,Humidity,HourlyPrecipIn,Conditions,Clouds,dailyrainin,SoftwareType,DateUTC
2013-11-26 00:22:00,48.0,40.0,30.21,WSW,257,0.0,-999.0,75,-99.99,,,-99.99,,2013-11-26 08:22:00,
2013-11-26 00:42:00,47.0,39.0,30.20,WSW,256,0.0,-999.0,75,-99.99,,,-99.99,,2013-11-26 08:42:00,
2013-11-26 00:52:00,47.0,40.0,30.20,WSW,256,0.0,-999.0,76,-99.99,,,-99.99,,2013-11-26 08:52:00,
2013-11-26 01:21:00,47.0,40.0,30.20,WSW,256,0.0,-999.0,76,-99.99,,,-99.99,,2013-11-26 09:21:00,
2013-11-26 01:43:00,49.0,40.0,30.21,WSW,256,0.0,-999.0,71,-99.99,,,-99.99,,2013-11-26 09:43:00,
2013-11-26 01:53:00,50.0,40.0,30.21,WSW,256,0.0,-999.0,68,-99.99,,,-99.99,,2013-11-26 09:53:00,
2013-11-26 02:23:00,56.0,39.0,30.20,WSW,257,0.0,-999.0,52,-99.99,,,-99.99,,2013-11-26 10:23:00,
2013-11-26 02:53:00,57.0,39.0,30.20,WSW,257,0.0,-999.0,51,-99.99,,,-99.99,,2013-11-26 10:53:00,
2013-11-26 04:21:00,59.0,38.0,30.20,WSW,254,0.0,-999.0,46,-99.99,,,-99.99,,2013-11-26 12:21:00,
2013-11-26 04:42:00,56.0,38.0,30.19,WSW,254,0.0,-999.0,50,-99.99,,,-99.99,,2013-11-26 12:42:00,
2013-11-26 04:52:00,55.0,38.0,30.20,WSW,254,0.0,-999.0,52,-99.99,,,-99.99,,2013-11-26 12:52:00,
2013-11-26 05:21:00,54.0,38.0,30.19,WSW,254,0.0,-999.0,55,-99.99,,,-99.99,,2013-11-26 13:21:00,
2013-11-26 05:42:00,54.0,38.0,30.19,SE,132,0.0,-999.0,54,-99.99,,,-99.99,,2013-11-26 13:42:00,
2013-11-26 05:52:00,57.0,38.0,30.19,NNE,30,0.0,-999.0,48,-99.99,,,-99.99,,2013-11-26 13:52:00,
2013-11-26 06:21:00,59.0,38.0,30.19,NE,42,0.0,-999.0,45,-99.99,,,-99.99,,2013-11-26 14:21:00,
2013-11-26 06:52:00,59.0,37.0,30.19,East,80,0.0,-999.0,44,-99.99,,,-99.99,,2013-11-26 14:52:00,
2013-11-26 07:21:00,61.0,37.0,30.19,East,79,0.0,-999.0,41,-99.99,,,-99.99,,2013-11-26 15:21:00,
2013-11-26 08:23:00,64.0,39.0,30.20,East,80,0.0,-999.0,39,-99.99,,,-99.99,,2013-11-26 16:23:00,
2013-11-26 10:21:00,72.0,38.0,30.20,ENE,60,1.0,-999.0,29,-99.99,,,-99.99,,2013-11-26 18:21:00,
2013-11-26 10:42:00,72.0,37.0,30.20,ENE,73,1.0,-999.0,28,-99.99,,,-99.99,,2013-11-26 18:42:00,
2013-11-26 10:52:00,74.0,39.0,30.19,ENE,61,0.0,-999.0,28,-99.99,,,-99.99,,2013-11-26 18:52:00,
2013-11-26 11:21:00,74.0,39.0,30.17,ESE,119,0.0,-999.0,28,-99.99,,,-99.99,,2013-11-26 19:21:00,
2013-11-26 11:52:00,75.0,40.0,30.15,East,81,0.0,-999.0,28,-99.99,,,-99.99,,2013-11-26 19:52:00,
2013-11-26 12:22:00,74.0,38.0,30.14,ESE,121,1.0,-999.0,27,-99.99,,,-99.99,,2013-11-26 20:22:00,
2013-11-26 12:42:00,76.0,39.0,30.13,North,360,0.0,-999.0,26,-99.99,,,-99.99,,2013-11-26 20:42:00,
2013-11-26 12:52:00,77.0,38.0,30.12,NNE,15,0.0,-999.0,25,-99.99,,,-99.99,,2013-11-26 20:52:00,
2013-11-26 13:22:00,77.0,37.0,30.11,NE,44,1.0,-999.0,24,-99.99,,,-99.99,,2013-11-26 21:22:00,
2013-11-26 13:43:00,77.0,38.0,30.11,North,9,0.0,-999.0,25,-99.99,,,-99.99,,2013-11-26 21:43:00,
2013-11-26 13:53:00,78.0,38.0,30.10,NE,43,0.0,-999.0,24,-99.99,,,-99.99,,2013-11-26 21:53:00,
2013-11-26 14:23:00,75.0,48.0,30.09,West,281,1.0,-999.0,38,-99.99,,,-99.99,,2013-11-26 22:23:00,
2013-11-26 14:43:00,74.0,46.0,30.09,WSW,257,1.0,-999.0,37,-99.99,,,-99.99,,2013-11-26 22:43:00,
2013-11-26 14:53:00,76.0,45.0,30.08,WSW,244,0.0,-999.0,33,-99.99,,,-99.99,,2013-11-26 22:53:00,
2013-11-26 15:22:00,77.0,42.0,30.08,West,279,0.0,-999.0,29,-99.99,,,-99.99,,2013-11-26 23:22:00,
2013-11-26 15:43:00,74.0,47.0,30.08,West,272,0.0,-999.0,38,-99.99,,,-99.99,,2013-11-26 23:43:00,
2013-11-26 15:53:00,71.0,47.0,30.08,West,269,0.0,-999.0,43,-99.99,,,-99.99,,2013-11-26 23:53:00,
2013-11-26 16:11:00,71.0,50.0,30.07,WSW,257,1.0,-999.0,47,-99.99,,,-99.99,,2013-11-27 00:11:00,
2013-11-26 16:21:00,69.0,51.0,30.07,WSW,254,1.0,-999.0,52,-99.99,,,-99.99,,2013-11-27 00:21:00,
2013-11-26 17:21:00,65.0,51.0,30.08,WSW,253,0.0,-999.0,60,-99.99,,,-99.99,,2013-11-27 01:21:00,
2013-11-26 17:42:00,64.0,51.0,30.09,WSW,252,0.0,-999.0,63,-99.99,,,-99.99,,2013-11-27 01:42:00,
2013-11-26 17:52:00,63.0,51.0,30.09,WSW,252,0.0,-999.0,66,-99.99,,,-99.99,,2013-11-27 01:52:00,
2013-11-26 18:12:00,62.0,51.0,30.09,WSW,252,0.0,-999.0,67,-99.99,,,-99.99,,2013-11-27 02:12:00,
2013-11-26 18:21:00,61.0,51.0,30.09,WSW,252,0.0,-999.0,69,-99.99,,,-99.99,,2013-11-27 02:21:00,
2013-11-26 18:42:00,60.0,50.0,30.09,WSW,252,0.0,-999.0,69,-99.99,,,-99.99,,2013-11-27 02:42:00,
2013-11-26 18:52:00,60.0,49.0,30.08,WSW,252,0.0,-999.0,67,-99.99,,,-99.99,,2013-11-27 02:52:00,
2013-11-26 19:21:00,66.0,41.0,30.08,ENE,76,0.0,-999.0,40,-99.99,,,-99.99,,2013-11-27 03:21:00,
2013-11-26 19:44:00,67.0,41.0,30.08,East,86,0.0,-999.0,38,-99.99,,,-99.99,,2013-11-27 03:44:00,
2013-11-26 19:53:00,68.0,41.0,30.09,East,90,0.0,-999.0,37,-99.99,,,-99.99,,2013-11-27 03:53:00,
2013-11-26 20:13:00,68.0,41.0,30.08,East,94,1.0,-999.0,37,-99.99,,,-99.99,,2013-11-27 04:13:00,
2013-11-26 20:43:00,68.0,40.0,30.08,East,82,1.0,-999.0,36,-99.99,,,-99.99,,2013-11-27 04:43:00,
2013-11-26 20:52:00,67.0,39.0,30.08,ENE,72,0.0,-999.0,36,-99.99,,,-99.99,,2013-11-27 04:52:00,
2013-11-26 21:22:00,67.0,40.0,30.08,SE,139,0.0,-999.0,37,-99.99,,,-99.99,,2013-11-27 05:22:00,
2013-11-26 21:42:00,66.0,38.0,30.08,North,355,0.0,-999.0,36,-99.99,,,-99.99,,2013-11-27 05:42:00,
2013-11-26 21:53:00,67.0,39.0,30.08,East,93,0.0,-999.0,36,-99.99,,,-99.99,,2013-11-27 05:53:00,
2013-11-26 22:12:00,67.0,39.0,30.09,East,83,0.0,-999.0,36,-99.99,,,-99.99,,2013-11-27 06:12:00,
2013-11-26 22:22:00,67.0,40.0,30.09,East,90,0.0,-999.0,37,-99.99,,,-99.99,,2013-11-27 06:22:00,
2013-11-26 22:42:00,66.0,40.0,30.08,ENE,59,0.0,-999.0,38,-99.99,,,-99.99,,2013-11-27 06:42:00,
2013-11-26 22:52:00,66.0,40.0,30.08,ENE,59,0.0,-999.0,38,-99.99,,,-99.99,,2013-11-27 06:52:00,
2013-11-26 23:21:00,65.0,40.0,30.08,East,96,0.0,-999.0,40,-99.99,,,-99.99,,2013-11-27 07:21:00,
2013-11-26 23:42:00,65.0,39.0,30.08,ESE,118,0.0,-999.0,39,-99.99,,,-99.99,,2013-11-27 07:42:00,
2013-11-26 23:52:00,65.0,39.0,30.07,East,84,0.0,-999.0,38,-99.99,,,-99.99,,2013-11-27 07:52:00,